When you browse on this site, cookies collect data to enhance your experience and personalize the content and advertising you see.
Visit our Privacy Policy to learn more. By continuing to use the site, you agree to this use of cookies and data.
  • In Hungary
  • List of Countries
  • For 7 days
  • Water Temperature
  • Weather Map
  • News
  • Weather Widgets
  • user-avatar
    Login

    Hourly Weather Youngstown

    Today, 10 April, Friday

    Time Temperature Precipitation Wind Pressure Humidity
    00:00 -1°C° 0 mm 5 mps 727 mmHg 71%
    01:00 -1°C° 0 mm 4 mps 728 mmHg 71%
    02:00 -1°C° 0 mm 5 mps 728 mmHg 75%
    03:00 -2°C° 0 mm 6 mps 728 mmHg 78%
    04:00 -3°C° 0 mm 6 mps 728 mmHg 82%
    05:00 -3°C° 0.2 mm 7 mps 729 mmHg 80%
    06:00 -3°C° 0.2 mm 7 mps 729 mmHg 79%
    07:00 -4°C° 0.2 mm 8 mps 730 mmHg 77%
    08:00 -2°C° 0.1 mm 8 mps 731 mmHg 71%
    09:00 -1°C° 0.1 mm 8 mps 731 mmHg 65%
    10:00 0°C° 0.1 mm 8 mps 732 mmHg 58%
    11:00 +1°C° 0 mm 8 mps 732 mmHg 55%
    12:00 +2°C° 0 mm 8 mps 732 mmHg 52%
    13:00 +2°C° 0 mm 8 mps 732 mmHg 49%
    14:00 +4°C° 0 mm 8 mps 733 mmHg 49%
    15:00 +4°C° 0 mm 7 mps 733 mmHg 48%
    16:00 +4°C° 0 mm 7 mps 733 mmHg 48%
    17:00 +3°C° 0 mm 6 mps 733 mmHg 53%
    18:00 +2°C° 0 mm 5 mps 733 mmHg 58%
    19:00 +1°C° 0 mm 4 mps 734 mmHg 63%
    20:00 +2°C° 0 mm 3 mps 734 mmHg 67%
    21:00 +1°C° 0 mm 3 mps 735 mmHg 72%
    22:00 +1°C° 0 mm 3 mps 735 mmHg 76%
    23:00 +1°C° 0 mm 3 mps 735 mmHg 77%

    Tomorrow, 11 April, Saturday

    Time Temperature Precipitation Wind Pressure Humidity
    00:00 +1°C° 0 mm 3 mps 736 mmHg 78%
    01:00 0°C° 0 mm 3 mps 736 mmHg 79%
    02:00 +1°C° 0 mm 2 mps 736 mmHg 79%
    03:00 -1°C° 0 mm 2 mps 736 mmHg 80%
    04:00 -2°C° 0 mm 2 mps 736 mmHg 80%
    05:00 -1°C° 0 mm 2 mps 736 mmHg 78%
    06:00 -1°C° 0 mm 2 mps 737 mmHg 76%
    07:00 +1°C° 0 mm 2 mps 737 mmHg 74%
    08:00 +2°C° 0 mm 3 mps 737 mmHg 66%
    09:00 +4°C° 0 mm 3 mps 737 mmHg 58%
    10:00 +6°C° 0 mm 4 mps 738 mmHg 50%
    11:00 +7°C° 0 mm 4 mps 737 mmHg 48%
    12:00 +8°C° 0 mm 4 mps 737 mmHg 46%
    13:00 +9°C° 0 mm 5 mps 737 mmHg 44%
    14:00 +11°C° 0 mm 4 mps 737 mmHg 46%
    15:00 +11°C° 0 mm 4 mps 736 mmHg 47%
    16:00 +11°C° 0 mm 4 mps 736 mmHg 49%
    17:00 +10°C° 0 mm 3 mps 736 mmHg 56%
    18:00 +9°C° 0 mm 3 mps 736 mmHg 64%
    19:00 +7°C° 0 mm 2 mps 736 mmHg 71%
    20:00 +7°C° 0 mm 2 mps 736 mmHg 73%
    21:00 +6°C° 0 mm 2 mps 736 mmHg 75%
    22:00 +6°C° 0 mm 2 mps 736 mmHg 78%
    23:00 +5°C° 0.1 mm 3 mps 736 mmHg 79%

    Day after tomorrow, 12 April, Sunday

    Time Temperature Precipitation Wind Pressure Humidity
    00:00 +5°C° 0.1 mm 3 mps 736 mmHg 80%
    01:00 +7°C° 0.1 mm 3 mps 736 mmHg 81%
    02:00 +5°C° 0.5 mm 3 mps 736 mmHg 84%
    03:00 +5°C° 0.5 mm 3 mps 736 mmHg 87%
    04:00 +5°C° 0.5 mm 3 mps 736 mmHg 90%
    05:00 +5°C° 0.1 mm 3 mps 735 mmHg 91%
    06:00 +5°C° 0.1 mm 3 mps 735 mmHg 92%
    07:00 +5°C° 0.1 mm 3 mps 735 mmHg 92%
    08:00 +7°C° 0 mm 4 mps 735 mmHg 87%
    09:00 +8°C° 0 mm 4 mps 735 mmHg 82%
    10:00 +10°C° 0 mm 5 mps 735 mmHg 77%
    11:00 +10°C° 0.2 mm 5 mps 735 mmHg 79%
    12:00 +10°C° 0.2 mm 5 mps 735 mmHg 81%
    13:00 +10°C° 0.2 mm 5 mps 734 mmHg 83%
    14:00 +11°C° 0 mm 4 mps 734 mmHg 82%
    15:00 +11°C° 0 mm 4 mps 733 mmHg 81%
    16:00 +11°C° 0 mm 3 mps 733 mmHg 80%
    17:00 +11°C° 0 mm 3 mps 732 mmHg 80%
    18:00 +11°C° 0 mm 3 mps 732 mmHg 80%
    19:00 +11°C° 0 mm 3 mps 731 mmHg 80%
    20:00 +12°C° 0 mm 3 mps 731 mmHg 81%
    21:00 +12°C° 0 mm 4 mps 730 mmHg 82%
    22:00 +12°C° 0 mm 5 mps 730 mmHg 83%
    23:00 +12°C° 0.2 mm 5 mps 728 mmHg 86%

    13 April, Monday

    Time Temperature Precipitation Wind Pressure Humidity
    00:00 +11°C° 0.2 mm 6 mps 726 mmHg 89%
    01:00 +13°C° 0.2 mm 6 mps 724 mmHg 92%
    02:00 +13°C° 0.2 mm 6 mps 723 mmHg 93%
    03:00 +13°C° 0.2 mm 5 mps 721 mmHg 93%
    04:00 +14°C° 0.2 mm 4 mps 719 mmHg 94%
    05:00 +14°C° 0.2 mm 4 mps 718 mmHg 94%
    06:00 +14°C° 0.2 mm 5 mps 716 mmHg 94%
    07:00 +15°C° 0.2 mm 5 mps 715 mmHg 94%
    08:00 +15°C° 1.2 mm 6 mps 715 mmHg 91%
    09:00 +13°C° 1.2 mm 8 mps 714 mmHg 87%
    10:00 +13°C° 1.2 mm 10 mps 714 mmHg 84%
    11:00 +11°C° 0.3 mm 11 mps 716 mmHg 80%
    12:00 +8°C° 0.3 mm 11 mps 719 mmHg 77%
    13:00 +5°C° 0.3 mm 12 mps 721 mmHg 74%
    14:00 +4°C° 0 mm 12 mps 723 mmHg 72%
    15:00 +3°C° 0 mm 11 mps 725 mmHg 71%
    16:00 +3°C° 0 mm 11 mps 726 mmHg 70%
    17:00 +2°C° 0.1 mm 10 mps 728 mmHg 72%
    18:00 +1°C° 0.1 mm 10 mps 729 mmHg 75%
    19:00 +1°C° 0.1 mm 9 mps 730 mmHg 77%
    20:00 0°C° 0.1 mm 9 mps 731 mmHg 78%
    21:00 -1°C° 0.1 mm 8 mps 732 mmHg 78%
    22:00 -2°C° 0.1 mm 8 mps 733 mmHg 79%
    23:00 -2°C° 0 mm 7 mps 734 mmHg 74%

    14 April, Tuesday

    Time Temperature Precipitation Wind Pressure Humidity
    00:00 -3°C° 0 mm 7 mps 735 mmHg 69%
    01:00 -3°C° 0 mm 6 mps 735 mmHg 64%
    02:00 -4°C° 0 mm 6 mps 736 mmHg 64%
    03:00 -4°C° 0 mm 6 mps 736 mmHg 64%
    04:00 -4°C° 0 mm 5 mps 736 mmHg 63%
    05:00 -3°C° 0 mm 6 mps 737 mmHg 60%
    06:00 -3°C° 0 mm 6 mps 737 mmHg 57%
    07:00 -3°C° 0 mm 7 mps 737 mmHg 54%
    08:00 -1°C° 0 mm 7 mps 738 mmHg 48%
    09:00 0°C° 0 mm 7 mps 738 mmHg 43%
    10:00 +3°C° 0 mm 7 mps 738 mmHg 37%
    11:00 +3°C° 0.1 mm 7 mps 738 mmHg 40%
    12:00 +4°C° 0.1 mm 7 mps 738 mmHg 43%
    13:00 +5°C° 0.1 mm 8 mps 738 mmHg 45%
    14:00 +5°C° 0.3 mm 7 mps 737 mmHg 50%
    15:00 +4°C° 0.3 mm 7 mps 737 mmHg 54%
    16:00 +4°C° 0.3 mm 7 mps 737 mmHg 59%
    17:00 +3°C° 0.3 mm 6 mps 737 mmHg 67%
    18:00 +2°C° 0.3 mm 5 mps 738 mmHg 76%
    19:00 +2°C° 0.3 mm 3 mps 738 mmHg 84%
    20:00 +1°C° 0.1 mm 3 mps 738 mmHg 82%
    21:00 0°C° 0.1 mm 3 mps 739 mmHg 80%
    22:00 +1°C° 0.1 mm 2 mps 740 mmHg 77%
    23:00 -1°C° 0 mm 2 mps 740 mmHg 76%

    15 April, Wednesday

    Time Temperature Precipitation Wind Pressure Humidity
    00:00 -2°C° 0 mm 2 mps 740 mmHg 74%
    01:00 -2°C° 0 mm 2 mps 740 mmHg 73%
    02:00 -3°C° 0 mm 2 mps 740 mmHg 73%
    03:00 -1°C° 0 mm 1 mps 740 mmHg 72%
    04:00 -1°C° 0 mm 1 mps 740 mmHg 72%
    05:00 -3°C° 0 mm 2 mps 740 mmHg 69%
    06:00 -2°C° 0 mm 2 mps 740 mmHg 67%
    07:00 -1°C° 0 mm 2 mps 740 mmHg 65%
    08:00 +2°C° 0 mm 2 mps 739 mmHg 57%
    09:00 +4°C° 0 mm 2 mps 739 mmHg 50%
    10:00 +6°C° 0 mm 2 mps 738 mmHg 42%
    11:00 +7°C° 0 mm 3 mps 738 mmHg 40%
    12:00 +7°C° 0 mm 4 mps 737 mmHg 38%
    13:00 +10°C° 0 mm 4 mps 736 mmHg 36%
    14:00 +9°C° 0 mm 5 mps 735 mmHg 39%
    15:00 +9°C° 0 mm 5 mps 735 mmHg 43%
    16:00 +9°C° 0 mm 6 mps 734 mmHg 46%
    17:00 +7°C° 0.3 mm 5 mps 734 mmHg 58%
    18:00 +6°C° 0.3 mm 5 mps 734 mmHg 69%
    19:00 +5°C° 0.3 mm 5 mps 734 mmHg 81%
    20:00 +2°C° 0.2 mm 5 mps 734 mmHg 79%
    21:00 +1°C° 0.2 mm 4 mps 735 mmHg 77%
    22:00 0°C° 0.2 mm 4 mps 735 mmHg 75%
    23:00 -1°C° 0 mm 4 mps 735 mmHg 75%
    Show more